Destin, FL

4:54 AM CDT on April 19, 2018 (GMT -0500)
Destin-Fort Walton Beach

Weather History for KDTS - January, 2013

Change the Weather History Date:

Tuesday, January 22, 2013

  Actual Average Record
Temperature  
Mean Temperature 53 °F -  
Max Temperature 61 °F 58 °F 77 °F (2017)
Min Temperature 45 °F 43 °F 30 °F (2001)
Degree Days  
Heating Degree Days 12    
Growing Degree Days 3 (Base 50)    
Moisture  
Dew Point 32 °F    
Average Humidity 49    
Maximum Humidity 73    
Minimum Humidity 27    
Precipitation  
Precipitation 0.00 in - - ()
Sea Level Pressure  
Sea Level Pressure 30.29 in    
Wind  
Wind Speed 8 mph (North)    
Max Wind Speed 12 mph    
Max Gust Speed -    
Visibility 10 miles    
Events      
Averages and records for this station are not official NWS values.
T = Trace of Precipitation, MM = Missing Value Source: NWS Daily Summary

Daily Weather History Graph

Daily Weather History Graph

Search for Another Location

Airport or City:

Astronomy

Jan. 22, 2013 Rise Set
Actual Time 6:41 AM CST 5:13 PM CST
Civil Twilight 6:15 AM CST 5:39 PM CST
Nautical Twilight 5:46 AM CST 6:08 PM CST
Astronomical Twilight 5:17 AM CST 6:37 PM CST
Moon 1:39 PM CST (1/22) 2:59 AM CST (1/22)
Length of Visible Light 11h 23m
Length of Day
10h 32m
Waxing Gibbous, 83% of the Moon is Illuminated
Jan 22
Waxing Gibbous
Jan 26
Full
Feb 3
Last Quarter
Feb 10
New
Feb 17
First Quarter

Hourly Weather History & Observations

Time (CST) Temp. Windchill Dew Point Humidity Pressure Visibility Wind Dir Wind Speed Gust Speed Precip Events Conditions
12:53 AM 52.0 °F - 39.0 °F 61% 30.19 in 10.0 mi North 8.1 mph - N/A   Clear
1:53 AM 51.1 °F - 37.0 °F 59% 30.19 in 10.0 mi North 11.5 mph - N/A   Clear
2:53 AM 50.0 °F - 34.0 °F 54% 30.20 in 10.0 mi NNE 9.2 mph - N/A   Clear
3:53 AM 48.9 °F - 33.1 °F 54% 30.22 in 10.0 mi North 10.4 mph - N/A   Clear
4:53 AM 46.9 °F - 32.0 °F 56% 30.24 in 10.0 mi NNE 11.5 mph - N/A   Clear
5:53 AM 46.0 °F 41.4 °F 30.0 °F 54% 30.26 in 10.0 mi NNE 9.2 mph - N/A   Clear
6:53 AM 45.0 °F 39.7 °F 28.9 °F 53% 30.29 in 10.0 mi NNE 10.4 mph - N/A   Clear
7:53 AM 45.0 °F 40.6 °F 28.0 °F 52% 30.32 in 10.0 mi NNE 8.1 mph - N/A   Clear
8:53 AM 48.0 °F - 28.0 °F 46% 30.34 in 10.0 mi NNE 9.2 mph - N/A   Clear
9:53 AM 51.1 °F - 26.1 °F 38% 30.35 in 10.0 mi North 8.1 mph - N/A   Clear
10:53 AM 54.0 °F - 25.0 °F 33% 30.35 in 10.0 mi NE 6.9 mph - N/A   Clear
11:53 AM 55.9 °F - 24.1 °F 29% 30.32 in 10.0 mi North 6.9 mph - N/A   Clear
12:53 PM 57.9 °F - 26.1 °F 30% 30.29 in 10.0 mi Variable 4.6 mph - N/A   Clear
1:53 PM 60.1 °F - 26.1 °F 27% 30.27 in 10.0 mi Variable 3.5 mph - N/A   Clear
2:53 PM 61.0 °F - 30.9 °F 32% 30.27 in 10.0 mi North 5.8 mph - N/A   Clear
3:53 PM 61.0 °F - 32.0 °F 34% 30.29 in 10.0 mi North 4.6 mph - N/A   Clear
4:53 PM 57.0 °F - 32.0 °F 39% 30.29 in 6.0 mi North 5.8 mph - N/A   Haze
5:53 PM 53.1 °F - 33.1 °F 47% 30.30 in 10.0 mi North 4.6 mph - N/A   Clear
6:53 PM 53.1 °F - 33.1 °F 47% 30.30 in 10.0 mi North 3.5 mph - N/A   Clear
7:53 PM 48.0 °F - 35.1 °F 61% 30.32 in 10.0 mi Calm Calm - N/A   Clear
8:53 PM 46.0 °F - 36.0 °F 68% 30.33 in 10.0 mi Calm Calm - N/A   Clear
9:53 PM 46.0 °F 43.9 °F 37.9 °F 73% 30.35 in 10.0 mi North 4.6 mph - N/A   Clear
10:53 PM 48.0 °F - 37.9 °F 68% 30.36 in 10.0 mi Calm Calm - N/A   Clear
11:53 PM 46.0 °F 44.8 °F 36.0 °F 68% 30.35 in 10.0 mi NNE 3.5 mph - N/A   Clear